Weather Roundup
Issued by NWS Corpus Christi, TX

Current Version | Previous Version | Text Only | Print | Product List | Glossary On
Versions: 1 2 3 4 5 6 7 8 9 10 11 12 13 14 15 16 17 18 19 20 21 22 23 24 25 26 27 28 29 30 31 32 33 34 35 36 37 38 39 40 41 42 43 44 45 46 47 48 49 50
000
ASUS44 KCRP 030910
HRRCRP

SOUTH TEXAS REGIONAL WEATHER ROUNDUP
NATIONAL WEATHER SERVICE CORPUS CHRISTI TX
400 AM CDT SUN MAY 03 2015


TXZ229>244-031000-
...CORPUS CHRISTI AREA OBSERVATIONS...

CITY           SKY/WX    TMP DP  RH WIND       PRES   REMARKS
CORPUS CHRISTI PTCLDY    67  62  84 SE6       29.98S
NAS CORPUS CHR CLEAR     71  66  84 SE9       29.97F
ROCKPORT       CLEAR     71  64  78 S6        29.98S
KINGSVILLE NAS CLEAR     66  65  96 MISG      29.97F
ALICE          CLEAR     63  60  90 NE5       29.97F
FALFURRIAS     CLEAR     61  58  92 CALM      29.96F
$$

...VICTORIA AREA OBSERVATIONS...

CITY           SKY/WX    TMP DP  RH WIND       PRES   REMARKS
VICTORIA       CLEAR     60  58  92 S5        30.00F
BEEVILLE       FAIR      61  60  96 SE5       29.99S
PLEASANTON     PTCLDY    60  57  90 CALM      29.99F
SAN ANTONIO    MOCLDY    64  58  80 E3        30.00F
$$

...LAREDO AREA OBSERVATIONS...

CITY           SKY/WX    TMP DP  RH WIND       PRES   REMARKS
LAREDO         CLOUDY    68  63  84 SE10      29.97F
COTULLA        PTCLDY    65  59  81 SE9       29.97F
DEL RIO        PTCLDY    65  59  81 E10       29.94S
MCALLEN        PTCLDY    72  66  81 E9        29.95F
HEBBRONVILLE     N/A     62  60  94 CALM      29.98S
$$

...OTHER TEXAS OBSERVATIONS...

CITY           SKY/WX    TMP DP  RH WIND       PRES   REMARKS
BROWNSVILLE    CLOUDY    71  68  90 SE5       29.95F
HOUSTON        PTCLDY    59  57  93 CALM      30.02S
COL. STATION   CLEAR     59  55  87 CALM      30.02S
AUSTIN         CLEAR     53  53 100 CALM      30.00F
WACO           CLEAR     61  55  81 S9        29.99F
FORT WORTH     CLEAR     65  55  70 S10       29.97R
WICHITA FALLS  CLEAR     61  54  77 S12       29.93S
LUBBOCK        MOCLDY    60  44  55 SW12      29.97F
EL PASO        MOCLDY    74  37  26 NW10      29.96S
$$

...MARINE OBSERVATIONS...

STATION/POSITION TIME  SKY/WX   TEMP    WIND        PRES    VSBY  WAVE   SWELL
                                AIR SEA DIR/SP/G                  HT/PER HT/PER
                 (UTC)          (F)     (DEG/KT/KT) (MB)    (MI)  (FT/S) (FT/S)
PORT ARANSAS     0900            73 76  140/ 12/ 13 1015.8S
BUOY 90 E PORT A 0850            74 75  150/ 12/ 14 1016.0F         2/ 4
BUOY 45 SE BAFFI 0850            74 74  130/ 16/ 19 1014.5F         3/ 4
BUOY 200 E PT IS 0850            77 77  120/ 14/ 16 1015.4F         2/ 3
BUOY 15 E GALVES 0850            73 74  170/ 12/ 16 1016.1F         2/ 3
$$


USA.gov is the U.S. government's official web portal to all federal, state and local government web resources and services.